Weather History for Middletown, OH

Change the Weather History Date:

Tuesday, May 6, 2014

  Actual Average (KDAY) Record (KDAY)
Temperature  
Mean Temperature 60 °F 58 °F  
Max Temperature 72 °F 69 °F 89 °F (1949)
Min Temperature 49 °F 48 °F 31 °F (1968)
Degree Days  
Heating Degree Days 4 7  
Month to date heating degree days 48  
Since 1 July heating degree days 5499  
Cooling Degree Days 0 1  
Month to date cooling degree days 6  
Year to date cooling degree days 16  
Growing Degree Days 10 (Base 50)    
Moisture  
Dew Point 38 °F    
Average Humidity 41    
Maximum Humidity 64    
Minimum Humidity 29    
Precipitation  
Precipitation 0.00 in 0.15 in 0.91 in (1971)
Month to date precipitation 0.90  
Year to date precipitation 13.28  
Snow  
Snow 0.00 in 0.00 in 0.00 in ()
Month to date snowfall 0.0  
Since 1 July snowfall 23.3  
Snow Depth -    
Sea Level Pressure  
Sea Level Pressure 29.96 in    
Wind  
Wind Speed 7 mph (ENE)    
Max Wind Speed 14 mph    
Max Gust Speed 20 mph    
Visibility 10 miles    
Events      
T = Trace of Precipitation, MM = Missing Value Source: NWS Daily Summary

Daily Weather History Graph

Daily Weather History Graph

Search for Another Location

Airport:

Trip Planner

Search our weather history database for the weather conditions in past years. The results will help you decide how hot, cold, wet, or windy it might be!

Date:

Astronomy

May. 06, 2014 Rise Set
Actual Time 6:32 AM EDT 8:36 PM EDT
Civil Twilight 6:03 AM EDT 9:05 PM EDT
Nautical Twilight 5:27 AM EDT 9:42 PM EDT
Astronomical Twilight 4:48 AM EDT 10:21 PM EDT
Moon 12:47 PM EDT (5/6) 1:55 AM EDT (5/6)
Length of Visible Light 15h 02m
Length of Day
14h 03m
Waxing Crescent, 46% of the Moon is Illuminated
May 6
Waxing Crescent
May 6
First Quarter
May 14
Full
May 21
Last Quarter
May 28
New

Hourly Weather History & Observations

Time (EDT) Temp. Dew Point Humidity Pressure Visibility Wind Dir Wind Speed Gust Speed Precip Events Conditions
12:15 AM 52.7 °F 37.0 °F 55% 29.93 in 10.0 mi NNE 5.8 mph - N/A   Clear
12:35 AM 52.7 °F 36.9 °F 55% 29.93 in 10.0 mi NNE 6.9 mph - N/A   Clear
1:15 AM 52.3 °F 36.5 °F 55% 29.94 in 10.0 mi NNE 3.5 mph - N/A   Clear
1:35 AM 50.7 °F 35.1 °F 55% 29.94 in 10.0 mi NNE 4.6 mph - N/A   Clear
1:55 AM 50.2 °F 35.2 °F 57% 29.94 in 10.0 mi NNE 5.8 mph - N/A   Clear
2:15 AM 50.2 °F 36.0 °F 58% 29.94 in 10.0 mi NNE 5.8 mph - N/A   Scattered Clouds
2:35 AM 50.2 °F 36.3 °F 59% 29.94 in 10.0 mi NNE 4.6 mph - N/A   Mostly Cloudy
2:55 AM 50.2 °F 37.0 °F 61% 29.93 in 10.0 mi NNE 4.6 mph - N/A   Mostly Cloudy
3:15 AM 49.3 °F 36.9 °F 62% 29.93 in 10.0 mi NNE 4.6 mph - N/A   Mostly Cloudy
7:55 AM 50.2 °F 38.3 °F 64% 30.00 in 10.0 mi ENE 6.9 mph - N/A   Clear
8:15 AM 52.7 °F 39.9 °F 62% 30.00 in 10.0 mi ENE 8.1 mph - N/A   Clear
8:35 AM 52.7 °F 38.1 °F 58% 30.01 in 10.0 mi ENE 9.2 mph - N/A   Clear
8:55 AM 52.7 °F 37.4 °F 56% 30.00 in 10.0 mi ENE 10.4 mph - N/A   Clear
9:15 AM 55.4 °F 38.1 °F 52% 30.00 in 10.0 mi ENE 8.1 mph - N/A   Clear
9:55 AM 57.7 °F 37.8 °F 47% 30.01 in 10.0 mi East 9.2 mph - N/A   Clear
10:15 AM 57.7 °F 35.8 °F 44% 30.01 in 10.0 mi ENE 11.5 mph - N/A   Clear
10:35 AM 59.0 °F 35.1 °F 41% 30.01 in 10.0 mi East 11.5 mph 17.3 mph N/A   Clear
10:55 AM 59.4 °F 34.2 °F 39% 30.01 in 10.0 mi East 8.1 mph - N/A   Clear
11:15 AM 60.6 °F 33.4 °F 36% 30.00 in 10.0 mi East 9.2 mph 17.3 mph N/A   Clear
11:35 AM 61.9 °F 34.2 °F 35% 30.00 in 10.0 mi East 13.8 mph - N/A   Clear
11:55 AM 62.6 °F 34.3 °F 35% 30.00 in 10.0 mi East 12.7 mph 17.3 mph N/A   Clear
12:15 PM 65.3 °F 36.0 °F 34% 30.00 in 10.0 mi East 12.7 mph - N/A   Clear
12:35 PM 67.6 °F 37.4 °F 33% 29.99 in 10.0 mi ESE 8.1 mph 16.1 mph N/A   Clear
12:55 PM 67.6 °F 38.3 °F 34% 29.99 in 10.0 mi ENE 11.5 mph - N/A   Clear
1:15 PM 67.6 °F 37.6 °F 33% 29.98 in 10.0 mi East 9.2 mph 19.6 mph N/A   Clear
1:35 PM 67.6 °F 39.0 °F 35% 29.98 in 10.0 mi ENE 10.4 mph - N/A   Clear
1:55 PM 67.6 °F 37.2 °F 33% 29.98 in 10.0 mi ENE 8.1 mph 16.1 mph N/A   Clear
2:15 PM 67.6 °F 38.3 °F 34% 29.98 in 10.0 mi ENE 9.2 mph - N/A   Clear
2:35 PM 68.9 °F 38.5 °F 33% 29.97 in 10.0 mi ENE 6.9 mph - N/A   Clear
2:55 PM 70.2 °F 39.2 °F 32% 29.97 in 10.0 mi East 10.4 mph - N/A   Clear
3:15 PM 72.7 °F 41.5 °F 32% 29.96 in 10.0 mi East 12.7 mph - N/A   Clear
3:35 PM 72.7 °F 39.6 °F 30% 29.95 in 10.0 mi East 8.1 mph - N/A   Clear
4:15 PM 72.7 °F 40.6 °F 31% 29.94 in 10.0 mi East 11.5 mph 17.3 mph N/A   Clear
4:35 PM 72.7 °F 39.6 °F 30% 29.93 in 10.0 mi East 9.2 mph 17.3 mph N/A   Clear
4:55 PM 72.7 °F 39.0 °F 29% 29.93 in 10.0 mi ENE 8.1 mph - N/A   Clear
5:15 PM 72.7 °F 39.0 °F 29% 29.93 in 10.0 mi East 8.1 mph - N/A   Clear
5:35 PM 72.7 °F 39.2 °F 30% 29.93 in 10.0 mi East 6.9 mph - N/A   Clear
5:55 PM 72.7 °F 39.2 °F 30% 29.93 in 10.0 mi ESE 8.1 mph - N/A   Clear
6:15 PM 72.7 °F 39.2 °F 30% 29.94 in 10.0 mi SE 10.4 mph - N/A   Clear
6:35 PM 72.7 °F 38.5 °F 29% 29.94 in 10.0 mi East 11.5 mph - N/A   Clear
6:55 PM 72.7 °F 40.1 °F 31% 29.93 in 10.0 mi East 9.2 mph - N/A   Clear
7:15 PM 72.7 °F 41.4 °F 32% 29.94 in 10.0 mi East 9.2 mph - N/A   Clear
7:35 PM 72.3 °F 41.2 °F 32% 29.93 in 10.0 mi East 9.2 mph - N/A   Clear
7:55 PM 67.6 °F 41.9 °F 39% 29.93 in 10.0 mi East 6.9 mph - N/A   Clear
8:15 PM 67.6 °F 43.2 °F 41% 29.94 in 10.0 mi ENE 6.9 mph - N/A   Clear
8:35 PM 67.6 °F 43.5 °F 42% 29.94 in 10.0 mi ENE 4.6 mph - N/A   Clear
8:55 PM 65.3 °F 42.6 °F 44% 29.94 in 10.0 mi NE 5.8 mph - N/A   Clear
9:15 PM 65.3 °F 42.4 °F 43% 29.95 in 10.0 mi NE 5.8 mph - N/A   Clear
9:35 PM 64.0 °F 42.3 °F 45% 29.95 in 10.0 mi NE 5.8 mph - N/A   Clear
9:55 PM 63.0 °F 40.6 °F 44% 29.96 in 10.0 mi NNE 5.8 mph - N/A   Clear
10:15 PM 62.6 °F 39.6 °F 43% 29.96 in 10.0 mi NE 4.6 mph - N/A   Scattered Clouds
10:35 PM 60.8 °F 40.8 °F 48% 29.95 in 10.0 mi Calm Calm - N/A   Scattered Clouds
10:55 PM 63.1 °F 37.4 °F 39% 29.91 in 10.0 mi ESE 11.5 mph - N/A   Clear
11:15 PM 66.0 °F 36.3 °F 33% 29.95 in 10.0 mi NE 6.9 mph - N/A   Clear
11:55 PM 62.6 °F 37.0 °F 39% 29.96 in 10.0 mi ENE 8.1 mph - N/A   Clear